Location: Beccas
(43.4309°N, 0.1528°E)
Time: 09:19:01
(UTC+00:00)

Cosmos 1000 Rocket - Pass Details

Date: 15 October 2021
Orbit: 954 x 991 km, 82.9° (Epoch: 07 December)

Event Time Altitude Azimuth Distance (km) Brightness Sun altitude
Rises 18:28:29 0° 353° (N) 3,644 7.6 -13.9°
Reaches altitude 10° 18:31:00 10° 356° (N) 2,696 6.9 -14.4°
Maximum altitude 18:37:09 71° 81° (E) 1,012 4.4 -15.5°
Drops below altitude 10° 18:43:18 10° 165° (SSE) 2,697 6.6 -16.6°
Sets 18:45:49 0° 168° (SSE) 3,645 7.3 -17.1°
